Location: Newark
(44.3248°N, 23.7839°E)
Time: 17:39:09
(UTC+00:00)

STARS - Pass Details

Date: 02 May 2024
Orbit: 604 x 620 km, 98.1° (Epoch: 28 May)

Event Time Altitude Azimuth Distance (km) Brightness Sun altitude
Rises 22:07:40 0° 19° (NNE) 2,887 ? -29.9°
Reaches altitude 10° 22:09:57 10° 25° (NNE) 1,974 ? -29.9°
Enters shadow 22:12:13 28° 43° (NE) 1,157 ? -29.9°
